Location: Goudex
(43.3760°N, 0.9543°E)
Time: 16:02:16
(UTC+00:00)

SKYMED 2 - Pass Details

Date: 20 November 2019
Orbit: 621 x 623 km, 97.9° (Epoch: 07 December)

Event Time Altitude Azimuth Distance (km) Brightness Sun altitude
Rises 05:16:43 0° 172° (S) 2,889 7.2 -17.8°
Reaches altitude 10° 05:18:55 10° 174° (S) 1,987 6.4 -17.4°
Maximum altitude 05:23:13 69° 258° (WSW) 670 3.5 -16.6°
Drops below altitude 10° 05:27:34 10° 342° (NNW) 2,002 5.9 -15.8°
Enters shadow 05:28:31 - 344° (NNW) 2,395 6.3 -15.7°
